User: anonymous   Login
Location: Unspecified
(0.0000°N, 0.0000°E)
Time: 00:07:05
(UTC+00:00)
Language:

STARLINK-35799 - Orbit

View from above orbital plane
View from above orbital plane
View from above satellite
View from above satellite

Ground track
Ground track

The orbit is defined by the following mean orbital elements,

1 66290U          26145.39565135 +.00000000 +00000-0 +74058-3 0 00008
2 66290  53.1600 194.0167 0001062  66.8452 293.2663 15.34402344    09
Epoch (UTC): 25 May 2026 09:29:44
Eccentricity: 0.0001062
inclination: 53.1600°
perigee height: 462 km
apogee height: 463 km
right ascension of ascending node: 194.0167°
argument of perigee: 66.8452°
revolutions per day: 15.34402344
mean anomaly at epoch: 293.2663°

The dashed part of the orbit path shows where the satellite is in the earth's shadow,  

DLR